,,,PA_Meas_PMT16A,,PR_Meas_QMR101_102,,RH_Meas_QMH101,,SR_Meas_QMS101,,TA_Meas_QMH101,,GenWind,,GenWind,
date,time,status,PA,status,PR,status,RH,status,SR,status,TA,status,DirAvg,status,SpdAvg,
2012-11-18, 00:00:05,VALID,1009.57,VALID,0,VALID,104,VALID,0,VALID,24.571,VALID,46,VALID,0,
2012-11-18, 00:01:05,VALID,1009.6,VALID,0,VALID,104,VALID,0,VALID,24.5496,VALID,46,VALID,0,
2012-11-18, 00:02:05,VALID,1009.6,VALID,0,VALID,104,VALID,0,VALID,24.571,VALID,46,VALID,0,
2012-11-18, 00:03:05,VALID,1009.59,VALID,0,VALID,104,VALID,0,VALID,24.5496,VALID,46,VALID,0.0828125,
2012-11-18, 00:04:05,VALID,1009.59,VALID,0,VALID,104,VALID,0,VALID,24.571,VALID,46,VALID,0.142188,
2012-11-18, 00:05:05,VALID,1009.59,VALID,0,VALID,104,VALID,0,VALID,24.5905,VALID,46,VALID,0,
2012-11-18, 00:06:05,VALID,1009.6,VALID,0,VALID,104,VALID,0,VALID,24.5905,VALID,46,VALID,0,
2012-11-18, 00:07:05,VALID,1009.59,VALID,0,VALID,104,VALID,0,VALID,24.5301,VALID,46,VALID,0,
2012-11-18, 00:08:05,VALID,1009.63,VALID,0,VALID,104,VALID,0,VALID,24.5905,VALID,46,VALID,0,
2012-11-18, 00:09:05,VALID,1009.63,VALID,0,VALID,104,VALID,0,VALID,24.5886,VALID,46,VALID,0,
2012-11-18, 00:10:05,VALID,1009.64,VALID,0,VALID,104,VALID,0,VALID,24.5905,VALID,46,VALID,0,
2012-11-18, 00:11:05,VALID,1009.66,VALID,0,VALID,104,VALID,0,VALID,24.6294,VALID,46,VALID,0,
2012-11-18, 00:12:05,VALID,1009.66,VALID,0,VALID,104,VALID,0,VALID,24.6099,VALID,46,VALID,0,
2012-11-18, 00:13:05,VALID,1009.65,VALID,0,VALID,104,VALID,0,VALID,24.6081,VALID,46,VALID,0,
2012-11-18, 00:14:05,VALID,1009.64,VALID,0,VALID,104,VALID,0,VALID,24.6294,VALID,46,VALID,0,
2012-11-18, 00:15:05,VALID,1009.63,VALID,0,VALID,104,VALID,0,VALID,24.6294,VALID,46,VALID,0,
2012-11-18, 00:16:05,VALID,1009.61,VALID,0,VALID,104,VALID,0,VALID,24.6294,VALID,46,VALID,0,
2012-11-18, 00:17:05,VALID,1009.59,VALID,0,VALID,104,VALID,0,VALID,24.6099,VALID,46,VALID,0,
2012-11-18, 00:18:05,VALID,1009.56,VALID,0,VALID,104,VALID,0,VALID,24.6099,VALID,46,VALID,0,
2012-11-18, 00:19:05,VALID,1009.59,VALID,0,VALID,104,VALID,0,VALID,24.5691,VALID,46,VALID,0,
2012-11-18, 00:20:05,VALID,1009.58,VALID,0,VALID,104,VALID,0,VALID,24.5691,VALID,46,VALID,0,
2012-11-18, 00:21:05,VALID,1009.58,VALID,0,VALID,104,VALID,0,VALID,24.5905,VALID,46,VALID,0,
2012-11-18, 00:22:05,VALID,1009.57,VALID,0,VALID,104,VALID,0,VALID,24.5496,VALID,46,VALID,0,
2012-11-18, 00:23:05,VALID,1009.58,VALID,0,VALID,104,VALID,0,VALID,24.5905,VALID,46,VALID,0,
2012-11-18, 00:24:05,VALID,1009.6,VALID,0,VALID,104,VALID,0,VALID,24.571,VALID,46,VALID,0,
2012-11-18, 00:25:05,VALID,1009.57,VALID,0,VALID,104,VALID,0,VALID,24.5496,VALID,46,VALID,0.321094,
2012-11-18, 00:26:05,VALID,1009.59,VALID,0,VALID,104,VALID,0,VALID,24.5515,VALID,46,VALID,0.483594,
2012-11-18, 00:27:05,VALID,1009.63,VALID,0,VALID,104,VALID,0,VALID,24.532,VALID,46,VALID,0.6375,
2012-11-18, 00:28:05,VALID,1009.62,VALID,0,VALID,104,VALID,0,VALID,24.5515,VALID,46,VALID,0.6625,
2012-11-18, 00:29:05,VALID,1009.64,VALID,0,VALID,104,VALID,0,VALID,24.5301,VALID,46,VALID,0.469531,
2012-11-18, 00:30:05,VALID,1009.63,VALID,0,VALID,104,VALID,0,VALID,24.5301,VALID,46,VALID,0.315625,
2012-11-18, 00:31:05,VALID,1009.62,VALID,0,VALID,104,VALID,0,VALID,24.5301,VALID,46,VALID,0.194922,
2012-11-18, 00:32:05,VALID,1009.62,VALID,0,VALID,104,VALID,0,VALID,24.5515,VALID,46,VALID,0.121875,
2012-11-18, 00:33:05,VALID,1009.66,VALID,0,VALID,104,VALID,0,VALID,24.532,VALID,46,VALID,0.155859,
2012-11-18, 00:34:05,VALID,1009.65,VALID,0,VALID,104,VALID,0,VALID,24.5515,VALID,46,VALID,0.00195313,
2012-11-18, 00:35:05,VALID,1009.62,VALID,0,VALID,104,VALID,0,VALID,24.5496,VALID,46,VALID,0,
2012-11-18, 00:36:05,VALID,1009.61,VALID,0,VALID,104,VALID,0,VALID,24.5515,VALID,46,VALID,0,
2012-11-18, 00:37:05,VALID,1009.61,VALID,0,VALID,104,VALID,0,VALID,24.532,VALID,46,VALID,0,
2012-11-18, 00:38:05,VALID,1009.6,VALID,0,VALID,104,VALID,0,VALID,24.5515,VALID,46,VALID,0,
2012-11-18, 00:39:05,VALID,1009.61,VALID,0,VALID,104,VALID,0,VALID,24.5301,VALID,46,VALID,0,
2012-11-18, 00:40:04,VALID,1009.6,VALID,0,VALID,104,VALID,0,VALID,24.5106,VALID,46,VALID,0,
2012-11-18, 00:41:04,VALID,1009.59,VALID,0,VALID,104,VALID,0,VALID,24.532,VALID,46,VALID,0,
2012-11-18, 00:42:04,VALID,1009.58,VALID,0,VALID,104,VALID,0,VALID,24.5301,VALID,46,VALID,0,
2012-11-18, 00:43:04,VALID,1009.55,VALID,0,VALID,104,VALID,0,VALID,24.5106,VALID,46,VALID,0,
2012-11-18, 00:44:04,VALID,1009.53,VALID,0,VALID,104,VALID,0,VALID,24.5301,VALID,46,VALID,0,
2012-11-18, 00:45:04,VALID,1009.51,VALID,0,VALID,104,VALID,0,VALID,24.571,VALID,46,VALID,0,
2012-11-18, 00:46:04,VALID,1009.48,VALID,0,VALID,104,VALID,0,VALID,24.5905,VALID,46,VALID,0,
2012-11-18, 00:47:04,VALID,1009.47,VALID,0,VALID,104,VALID,0,VALID,24.6099,VALID,46,VALID,0,
2012-11-18, 00:48:04,VALID,1009.46,VALID,0,VALID,104,VALID,0,VALID,24.6099,VALID,46,VALID,0,
2012-11-18, 00:49:04,VALID,1009.48,VALID,0,VALID,104,VALID,0,VALID,24.6099,VALID,46,VALID,0,
2012-11-18, 00:50:04,VALID,1009.46,VALID,0,VALID,104,VALID,0.112112,VALID,24.6294,VALID,46,VALID,0,
2012-11-18, 00:51:04,VALID,1009.43,VALID,0,VALID,104,VALID,0,VALID,24.6471,VALID,46,VALID,0,
2012-11-18, 00:52:04,VALID,1009.42,VALID,0,VALID,104,VALID,0,VALID,24.6276,VALID,46,VALID,0,
2012-11-18, 00:53:04,VALID,1009.41,VALID,0,VALID,104,VALID,0.112112,VALID,24.6276,VALID,46,VALID,0,
2012-11-18, 00:54:04,VALID,1009.41,VALID,0,VALID,104,VALID,0.112112,VALID,24.6276,VALID,46,VALID,0,
2012-11-18, 00:55:04,VALID,1009.37,VALID,0,VALID,104,VALID,0,VALID,24.6276,VALID,46,VALID,0,
2012-11-18, 00:56:04,VALID,1009.35,VALID,0,VALID,104,VALID,0.112112,VALID,24.6684,VALID,46,VALID,0,
2012-11-18, 00:57:04,VALID,1009.35,VALID,0,VALID,104,VALID,0,VALID,24.6879,VALID,46,VALID,0,
2012-11-18, 00:58:04,VALID,1009.35,VALID,0,VALID,104,VALID,0.112112,VALID,24.6666,VALID,46,VALID,0,
2012-11-18, 00:59:04,VALID,1009.32,VALID,0,VALID,104,VALID,0.112112,VALID,24.7074,VALID,46,VALID,0,
2012-11-18, 01:00:04,VALID,1009.34,VALID,0,VALID,104,VALID,0,VALID,24.6879,VALID,46,VALID,0,
2012-11-18, 01:01:04,VALID,1009.33,VALID,0,VALID,104,VALID,0,VALID,24.686,VALID,46,VALID,0,
2012-11-18, 01:02:04,VALID,1009.32,VALID,0,VALID,104,VALID,0,VALID,24.686,VALID,46,VALID,0.117578,
2012-11-18, 01:03:04,VALID,1009.29,VALID,0,VALID,104,VALID,0,VALID,24.686,VALID,46,VALID,0.11875,
2012-11-18, 01:04:04,VALID,1009.29,VALID,0,VALID,104,VALID,0,VALID,24.6471,VALID,46,VALID,0.137891,
2012-11-18, 01:05:04,VALID,1009.3,VALID,0,VALID,104,VALID,0.112112,VALID,24.6684,VALID,46,VALID,0.166016,
2012-11-18, 01:06:04,VALID,1009.29,VALID,0,VALID,104,VALID,0,VALID,24.6276,VALID,46,VALID,0.367969,
2012-11-18, 01:07:04,VALID,1009.29,VALID,0,VALID,104,VALID,0.112112,VALID,24.6276,VALID,46,VALID,0.129297,
2012-11-18, 01:08:04,VALID,1009.26,VALID,0,VALID,104,VALID,0,VALID,24.6489,VALID,46,VALID,0.112109,
2012-11-18, 01:09:04,VALID,1009.27,VALID,0,VALID,104,VALID,0,VALID,24.6276,VALID,46,VALID,0,
2012-11-18, 01:10:04,VALID,1009.26,VALID,0,VALID,104,VALID,0,VALID,24.6276,VALID,46,VALID,0.139062,
2012-11-18, 01:11:04,VALID,1009.25,VALID,0,VALID,104,VALID,0.112112,VALID,24.6471,VALID,46,VALID,0.228516,
2012-11-18, 01:12:04,VALID,1009.24,VALID,0,VALID,104,VALID,0,VALID,24.6276,VALID,46,VALID,0.139062,
2012-11-18, 01:13:04,VALID,1009.25,VALID,0,VALID,104,VALID,0.112112,VALID,24.6489,VALID,46,VALID,0.0882813,
2012-11-18, 01:14:04,VALID,1009.24,VALID,0,VALID,104,VALID,0,VALID,24.6276,VALID,46,VALID,0,
2012-11-18, 01:15:04,VALID,1009.24,VALID,0,VALID,104,VALID,0,VALID,24.6489,VALID,46,VALID,0,
2012-11-18, 01:16:04,VALID,1009.21,VALID,0,VALID,104,VALID,0,VALID,24.6099,VALID,46,VALID,0,
2012-11-18, 01:17:04,VALID,1009.18,VALID,0,VALID,104,VALID,0,VALID,24.6099,VALID,46,VALID,0.00351562,
2012-11-18, 01:18:04,VALID,1009.17,VALID,0,VALID,104,VALID,0,VALID,24.5886,VALID,46,VALID,0.221875,
2012-11-18, 01:19:04,VALID,1009.17,VALID,0,VALID,104,VALID,0,VALID,24.5886,VALID,46,VALID,0.195313,
2012-11-18, 01:20:04,VALID,1009.15,VALID,0,VALID,104,VALID,0,VALID,24.5905,VALID,46,VALID,0.152734,
2012-11-18, 01:21:04,VALID,1009.14,VALID,0,VALID,104,VALID,0.112112,VALID,24.5886,VALID,46,VALID,0.241016,
2012-11-18, 01:22:04,VALID,1009.09,VALID,0,VALID,104,VALID,0,VALID,24.5691,VALID,45,VALID,0.169922,
2012-11-18, 01:23:04,VALID,1009.06,VALID,0,VALID,104,VALID,0,VALID,24.5691,VALID,46,VALID,0.242188,
2012-11-18, 01:24:04,VALID,1009.04,VALID,0,VALID,104,VALID,0,VALID,24.5691,VALID,46,VALID,0.138672,
2012-11-18, 01:25:04,VALID,1009.02,VALID,0,VALID,104,VALID,0.112112,VALID,24.5886,VALID,46,VALID,0.00351562,
2012-11-18, 01:26:04,VALID,1009.03,VALID,0,VALID,104,VALID,0.112112,VALID,24.5886,VALID,46,VALID,0.0507813,
2012-11-18, 01:27:04,VALID,1009.02,VALID,0,VALID,104,VALID,0.112112,VALID,24.5886,VALID,46,VALID,0,
2012-11-18, 01:28:04,VALID,1008.99,VALID,0,VALID,104,VALID,0.112112,VALID,24.5886,VALID,46,VALID,0,
2012-11-18, 01:29:04,VALID,1009,VALID,0,VALID,104,VALID,0.112112,VALID,24.5691,VALID,46,VALID,0.0277344,
2012-11-18, 01:30:04,VALID,1008.99,VALID,0,VALID,104,VALID,0,VALID,24.5691,VALID,46,VALID,0,
2012-11-18, 01:31:04,VALID,1008.95,VALID,0,VALID,104,VALID,0,VALID,24.571,VALID,46,VALID,0,
2012-11-18, 01:32:04,VALID,1008.96,VALID,0,VALID,104,VALID,0,VALID,24.571,VALID,46,VALID,0,
2012-11-18, 01:33:04,VALID,1008.94,VALID,0,VALID,104,VALID,0,VALID,24.571,VALID,46,VALID,0,
2012-11-18, 01:34:04,VALID,1008.94,VALID,0,VALID,104,VALID,0,VALID,24.571,VALID,46,VALID,0.255469,
2012-11-18, 01:35:04,VALID,1008.93,VALID,0,VALID,104,VALID,0,VALID,24.571,VALID,46,VALID,0.177734,
2012-11-18, 01:36:04,VALID,1008.88,VALID,0,VALID,104,VALID,0,VALID,24.5496,VALID,46,VALID,0.425391,
2012-11-18, 01:37:04,VALID,1008.9,VALID,0,VALID,104,VALID,0,VALID,24.5496,VALID,46,VALID,0.20625,
2012-11-18, 01:38:04,VALID,1008.89,VALID,0,VALID,104,VALID,0.112112,VALID,24.5515,VALID,46,VALID,0.0769531,
2012-11-18, 01:39:04,VALID,1008.9,VALID,0,VALID,104,VALID,0,VALID,24.5515,VALID,46,VALID,0.228906,
2012-11-18, 01:40:04,VALID,1008.9,VALID,0,VALID,104,VALID,0,VALID,24.5301,VALID,46,VALID,0.307031,
2012-11-18, 01:41:04,VALID,1008.9,VALID,0,VALID,104,VALID,0,VALID,24.5515,VALID,46,VALID,0,
2012-11-18, 01:42:04,VALID,1008.9,VALID,0,VALID,104,VALID,0,VALID,24.5515,VALID,46,VALID,0.0445312,
2012-11-18, 01:43:04,VALID,1008.89,VALID,0,VALID,104,VALID,0.112112,VALID,24.5496,VALID,46,VALID,0.0347656,
2012-11-18, 01:44:04,VALID,1008.9,VALID,0,VALID,104,VALID,0,VALID,24.5496,VALID,46,VALID,0.571875,
2012-11-18, 01:45:04,VALID,1008.89,VALID,0,VALID,104,VALID,0,VALID,24.4911,VALID,46,VALID,0.391016,
2012-11-18, 01:46:04,VALID,1008.87,VALID,0,VALID,104,VALID,0.112112,VALID,24.5106,VALID,46,VALID,0.379297,
2012-11-18, 01:47:04,VALID,1008.84,VALID,0,VALID,104,VALID,0,VALID,24.532,VALID,46,VALID,0.288672,
2012-11-18, 01:48:04,VALID,1008.86,VALID,0,VALID,104,VALID,0,VALID,24.5125,VALID,45,VALID,0.421484,
2012-11-18, 01:49:04,VALID,1008.83,VALID,0,VALID,104,VALID,0.112112,VALID,24.5106,VALID,46,VALID,0.366406,
2012-11-18, 01:50:04,VALID,1008.81,VALID,0,VALID,104,VALID,0.112112,VALID,24.5106,VALID,46,VALID,0.412891,
2012-11-18, 01:51:04,VALID,1008.8,VALID,0,VALID,104,VALID,0.112112,VALID,24.4911,VALID,46,VALID,0.021875,
2012-11-18, 01:52:04,VALID,1008.81,VALID,0,VALID,104,VALID,0,VALID,24.4911,VALID,46,VALID,0.355469,
2012-11-18, 01:53:04,VALID,1008.77,VALID,0,VALID,104,VALID,0.112112,VALID,24.493,VALID,46,VALID,0.00351562,
2012-11-18, 01:54:04,VALID,1008.77,VALID,0,VALID,104,VALID,0,VALID,24.4717,VALID,46,VALID,0.427734,
2012-11-18, 01:55:04,VALID,1008.77,VALID,0,VALID,104,VALID,0,VALID,24.4717,VALID,46,VALID,0.657031,
2012-11-18, 01:56:04,VALID,1008.74,VALID,0,VALID,104,VALID,0,VALID,24.493,VALID,45,VALID,0.134766,
2012-11-18, 01:57:04,VALID,1008.75,VALID,0,VALID,104,VALID,0.112112,VALID,24.4522,VALID,45,VALID,0.177734,
2012-11-18, 01:58:04,VALID,1008.77,VALID,0,VALID,104,VALID,0.112112,VALID,24.4522,VALID,45,VALID,0.108203,
2012-11-18, 01:59:04,VALID,1008.76,VALID,0,VALID,104,VALID,0.112112,VALID,24.4735,VALID,45,VALID,0.189063,
2012-11-18, 02:00:04,VALID,1008.79,VALID,0,VALID,104,VALID,0.112112,VALID,24.454,VALID,44,VALID,0,
2012-11-18, 02:01:04,VALID,1008.8,VALID,0,VALID,104,VALID,0.112112,VALID,24.4327,VALID,45,VALID,0.523047,
2012-11-18, 02:02:04,VALID,1008.8,VALID,0,VALID,104,VALID,0.112112,VALID,24.4327,VALID,46,VALID,0.658984,
2012-11-18, 02:03:04,VALID,1008.78,VALID,0,VALID,104,VALID,0,VALID,24.4345,VALID,47,VALID,0.641797,
2012-11-18, 02:04:04,VALID,1008.79,VALID,0,VALID,104,VALID,0.112112,VALID,24.4327,VALID,47,VALID,0.408984,
2012-11-18, 02:05:04,VALID,1008.77,VALID,0,VALID,104,VALID,0.112112,VALID,24.4522,VALID,47,VALID,0.180469,
2012-11-18, 02:06:04,VALID,1008.75,VALID,0,VALID,104,VALID,0,VALID,24.4717,VALID,47,VALID,0.391797,
2012-11-18, 02:07:04,VALID,1008.75,VALID,0,VALID,104,VALID,0,VALID,24.5125,VALID,47,VALID,0.0953125,
2012-11-18, 02:08:04,VALID,1008.71,VALID,0,VALID,104,VALID,0,VALID,24.5106,VALID,47,VALID,0.467578,
2012-11-18, 02:09:04,VALID,1008.72,VALID,0,VALID,104,VALID,0.112112,VALID,24.532,VALID,47,VALID,0.422656,
2012-11-18, 02:10:04,VALID,1008.67,VALID,0,VALID,104,VALID,0.112112,VALID,24.5106,VALID,47,VALID,0.184766,
2012-11-18, 02:11:04,VALID,1008.65,VALID,0,VALID,104,VALID,0,VALID,24.4911,VALID,47,VALID,0.635156,
2012-11-18, 02:12:04,VALID,1008.64,VALID,0,VALID,104,VALID,0.112112,VALID,24.4911,VALID,47,VALID,0.324219,
2012-11-18, 02:13:04,VALID,1008.64,VALID,0,VALID,104,VALID,0,VALID,24.5125,VALID,47,VALID,0.236719,
2012-11-18, 02:14:04,VALID,1008.63,VALID,0,VALID,104,VALID,0,VALID,24.4717,VALID,47,VALID,0.230859,
2012-11-18, 02:15:04,VALID,1008.63,VALID,0,VALID,104,VALID,0,VALID,24.493,VALID,47,VALID,0.342187,
2012-11-18, 02:16:04,VALID,1008.61,VALID,0,VALID,104,VALID,0,VALID,24.4522,VALID,47,VALID,0.169922,
2012-11-18, 02:17:04,VALID,1008.63,VALID,0,VALID,104,VALID,0,VALID,24.4522,VALID,47,VALID,0.286719,
2012-11-18, 02:18:04,VALID,1008.62,VALID,0,VALID,104,VALID,0,VALID,24.4327,VALID,47,VALID,0.147656,
2012-11-18, 02:19:04,VALID,1008.62,VALID,0,VALID,104,VALID,0.112112,VALID,24.4327,VALID,47,VALID,0.0832031,
2012-11-18, 02:20:04,VALID,1008.61,VALID,0,VALID,104,VALID,0.112112,VALID,24.4522,VALID,47,VALID,0,
2012-11-18, 02:21:04,VALID,1008.6,VALID,0,VALID,104,VALID,0.112112,VALID,24.4327,VALID,47,VALID,0,
2012-11-18, 02:22:04,VALID,1008.59,VALID,0,VALID,104,VALID,0,VALID,24.454,VALID,47,VALID,0,
2012-11-18, 02:23:04,VALID,1008.58,VALID,0,VALID,104,VALID,0,VALID,24.4327,VALID,47,VALID,0,
2012-11-18, 02:24:04,VALID,1008.58,VALID,0,VALID,104,VALID,0,VALID,24.4735,VALID,47,VALID,0.0738281,
2012-11-18, 02:25:04,VALID,1008.57,VALID,0,VALID,104,VALID,0,VALID,24.4735,VALID,47,VALID,0.142578,
2012-11-18, 02:26:04,VALID,1008.61,VALID,0,VALID,104,VALID,0,VALID,24.493,VALID,47,VALID,0,
2012-11-18, 02:27:04,VALID,1008.59,VALID,0,VALID,104,VALID,0,VALID,24.493,VALID,47,VALID,0,
2012-11-18, 02:28:04,VALID,1008.62,VALID,0,VALID,104,VALID,0,VALID,24.493,VALID,47,VALID,0,
2012-11-18, 02:29:04,VALID,1008.59,VALID,0,VALID,104,VALID,0,VALID,24.4735,VALID,47,VALID,0,
2012-11-18, 02:30:04,VALID,1008.61,VALID,0,VALID,104,VALID,0,VALID,24.4735,VALID,47,VALID,0,
2012-11-18, 02:31:04,VALID,1008.58,VALID,0,VALID,104,VALID,0,VALID,24.4735,VALID,47,VALID,0,
2012-11-18, 02:32:04,VALID,1008.59,VALID,0,VALID,104,VALID,0,VALID,24.493,VALID,47,VALID,0,
2012-11-18, 02:33:04,VALID,1008.59,VALID,0,VALID,104,VALID,0,VALID,24.493,VALID,47,VALID,0,
2012-11-18, 02:34:04,VALID,1008.55,VALID,0,VALID,104,VALID,0,VALID,24.4735,VALID,47,VALID,0,
2012-11-18, 02:35:04,VALID,1008.58,VALID,0,VALID,104,VALID,0,VALID,24.4735,VALID,47,VALID,0,
2012-11-18, 02:36:04,VALID,1008.55,VALID,0,VALID,104,VALID,0,VALID,24.4735,VALID,47,VALID,0,
2012-11-18, 02:37:04,VALID,1008.54,VALID,0,VALID,104,VALID,0,VALID,24.454,VALID,47,VALID,0,
2012-11-18, 02:38:04,VALID,1008.53,VALID,0,VALID,104,VALID,0,VALID,24.4345,VALID,47,VALID,0,
2012-11-18, 02:39:04,VALID,1008.56,VALID,0,VALID,104,VALID,0.112112,VALID,24.4132,VALID,47,VALID,0,
2012-11-18, 02:40:04,VALID,1008.55,VALID,0,VALID,104,VALID,0,VALID,24.4345,VALID,47,VALID,0,
2012-11-18, 02:41:04,VALID,1008.56,VALID,0,VALID,104,VALID,0,VALID,24.3956,VALID,48,VALID,0,
2012-11-18, 02:42:04,VALID,1008.56,VALID,0,VALID,104,VALID,0,VALID,24.3937,VALID,47,VALID,0,
2012-11-18, 02:43:04,VALID,1008.53,VALID,0,VALID,104,VALID,0,VALID,24.3956,VALID,46,VALID,0,
2012-11-18, 02:44:04,VALID,1008.51,VALID,0,VALID,104,VALID,0,VALID,24.3956,VALID,47,VALID,0,
2012-11-18, 02:45:04,VALID,1008.49,VALID,0,VALID,104,VALID,0,VALID,24.3937,VALID,47,VALID,0,
2012-11-18, 02:46:04,VALID,1008.48,VALID,0,VALID,104,VALID,0,VALID,24.3761,VALID,47,VALID,0,
2012-11-18, 02:47:04,VALID,1008.49,VALID,0,VALID,104,VALID,0,VALID,24.3566,VALID,47,VALID,0,
2012-11-18, 02:48:04,VALID,1008.49,VALID,0,VALID,104,VALID,0,VALID,24.3761,VALID,47,VALID,0,
2012-11-18, 02:49:04,VALID,1008.47,VALID,0,VALID,104,VALID,0,VALID,24.3956,VALID,47,VALID,0,
2012-11-18, 02:50:04,VALID,1008.48,VALID,0,VALID,104,VALID,0,VALID,24.3761,VALID,47,VALID,0,
2012-11-18, 02:51:04,VALID,1008.46,VALID,0,VALID,104,VALID,0,VALID,24.3547,VALID,47,VALID,0,
2012-11-18, 02:52:04,VALID,1008.46,VALID,0,VALID,104,VALID,0,VALID,24.3761,VALID,47,VALID,0,
2012-11-18, 02:53:04,VALID,1008.44,VALID,0,VALID,104,VALID,0,VALID,24.3566,VALID,46,VALID,0,
2012-11-18, 02:54:04,VALID,1008.46,VALID,0,VALID,104,VALID,0,VALID,24.3566,VALID,46,VALID,0,
2012-11-18, 02:55:04,VALID,1008.44,VALID,0,VALID,104,VALID,0,VALID,24.3371,VALID,47,VALID,0,
2012-11-18, 02:56:04,VALID,1008.42,VALID,0,VALID,104,VALID,0,VALID,24.3371,VALID,47,VALID,0,
2012-11-18, 02:57:04,VALID,1008.42,VALID,0,VALID,104,VALID,0.112112,VALID,24.3176,VALID,47,VALID,0,
2012-11-18, 02:58:04,VALID,1008.42,VALID,0,VALID,104,VALID,0,VALID,24.2963,VALID,47,VALID,0.134766,
2012-11-18, 02:59:04,VALID,1008.38,VALID,0,VALID,104,VALID,0,VALID,24.2981,VALID,47,VALID,0.201562,
2012-11-18, 03:00:04,VALID,1008.38,VALID,0,VALID,104,VALID,0,VALID,24.2981,VALID,47,VALID,0,
2012-11-18, 03:01:04,VALID,1008.36,VALID,0,VALID,104,VALID,0,VALID,24.2786,VALID,47,VALID,0.334375,
2012-11-18, 03:02:04,VALID,1008.36,VALID,0,VALID,104,VALID,0,VALID,24.2981,VALID,47,VALID,0.403906,
2012-11-18, 03:03:04,VALID,1008.34,VALID,0,VALID,104,VALID,0,VALID,24.3176,VALID,47,VALID,0.347656,
2012-11-18, 03:04:04,VALID,1008.36,VALID,0,VALID,104,VALID,0,VALID,24.3371,VALID,47,VALID,0.224609,
2012-11-18, 03:05:04,VALID,1008.32,VALID,0,VALID,104,VALID,0,VALID,24.3371,VALID,47,VALID,0.410156,
2012-11-18, 03:06:04,VALID,1008.32,VALID,0,VALID,104,VALID,0,VALID,24.3761,VALID,47,VALID,0.385156,
2012-11-18, 03:07:04,VALID,1008.34,VALID,0,VALID,104,VALID,0,VALID,24.3761,VALID,47,VALID,0.611328,
2012-11-18, 03:08:04,VALID,1008.36,VALID,0,VALID,104,VALID,0,VALID,24.3761,VALID,89,VALID,0.981641,
2012-11-18, 03:09:04,VALID,1008.34,VALID,0,VALID,104,VALID,0,VALID,24.3956,VALID,98,VALID,0.471094,
2012-11-18, 03:10:04,VALID,1008.34,VALID,0,VALID,104,VALID,0,VALID,24.4345,VALID,108,VALID,0.642578,
2012-11-18, 03:11:04,VALID,1008.36,VALID,0,VALID,104,VALID,0,VALID,24.4735,VALID,137,VALID,0.733203,
2012-11-18, 03:12:04,VALID,1008.37,VALID,0,VALID,104,VALID,0,VALID,24.4735,VALID,148,VALID,0.673047,
2012-11-18, 03:13:04,VALID,1008.38,VALID,0,VALID,104,VALID,0,VALID,24.493,VALID,148,VALID,0.421484,
2012-11-18, 03:14:04,VALID,1008.38,VALID,0,VALID,104,VALID,0,VALID,24.493,VALID,148,VALID,0.178125,
2012-11-18, 03:15:04,VALID,1008.41,VALID,0,VALID,104,VALID,0,VALID,24.493,VALID,148,VALID,0.0640625,
2012-11-18, 03:16:04,VALID,1008.41,VALID,0,VALID,104,VALID,0,VALID,24.493,VALID,148,VALID,0.0222656,
2012-11-18, 03:17:04,VALID,1008.41,VALID,0,VALID,104,VALID,0,VALID,24.4735,VALID,148,VALID,0.186719,
2012-11-18, 03:18:04,VALID,1008.43,VALID,0,VALID,104,VALID,0,VALID,24.4522,VALID,148,VALID,0.451562,
2012-11-18, 03:19:04,VALID,1008.4,VALID,0,VALID,104,VALID,0,VALID,24.4522,VALID,148,VALID,0.161719,
2012-11-18, 03:20:04,VALID,1008.37,VALID,0,VALID,104,VALID,0,VALID,24.4735,VALID,148,VALID,0.189844,
2012-11-18, 03:21:04,VALID,1008.37,VALID,0,VALID,104,VALID,0,VALID,24.4327,VALID,148,VALID,0.158203,
2012-11-18, 03:22:04,VALID,1008.37,VALID,0,VALID,104,VALID,0,VALID,24.4735,VALID,148,VALID,0.201953,
2012-11-18, 03:23:04,VALID,1008.36,VALID,0,VALID,104,VALID,0,VALID,24.493,VALID,148,VALID,0.117188,
2012-11-18, 03:24:04,VALID,1008.38,VALID,0,VALID,104,VALID,0,VALID,24.4735,VALID,148,VALID,0.178516,
2012-11-18, 03:25:04,VALID,1008.37,VALID,0,VALID,104,VALID,0,VALID,24.4735,VALID,148,VALID,0.210156,
2012-11-18, 03:26:04,VALID,1008.37,VALID,0,VALID,104,VALID,0,VALID,24.454,VALID,148,VALID,0.275,
2012-11-18, 03:27:04,VALID,1008.37,VALID,0,VALID,104,VALID,0,VALID,24.454,VALID,148,VALID,0.226172,
2012-11-18, 03:28:04,VALID,1008.34,VALID,0,VALID,104,VALID,0,VALID,24.4345,VALID,148,VALID,0.483984,
2012-11-18, 03:29:04,VALID,1008.34,VALID,0,VALID,104,VALID,0,VALID,24.415,VALID,148,VALID,0.360547,
2012-11-18, 03:30:04,VALID,1008.34,VALID,0,VALID,104,VALID,0,VALID,24.3547,VALID,148,VALID,0.477344,
2012-11-18, 03:31:04,VALID,1008.34,VALID,0,VALID,104,VALID,0,VALID,24.3352,VALID,124,VALID,0.498437,
2012-11-18, 03:32:04,VALID,1008.35,VALID,0,VALID,104,VALID,0,VALID,24.3371,VALID,124,VALID,0.433984,
2012-11-18, 03:33:04,VALID,1008.35,VALID,0,VALID,104,VALID,0,VALID,24.3158,VALID,124,VALID,0.352344,
2012-11-18, 03:34:04,VALID,1008.37,VALID,0,VALID,104,VALID,0,VALID,24.2963,VALID,124,VALID,0.346484,
2012-11-18, 03:35:04,VALID,1008.38,VALID,0,VALID,104,VALID,0,VALID,24.3176,VALID,124,VALID,0.301953,
2012-11-18, 03:36:04,VALID,1008.39,VALID,0,VALID,104,VALID,0,VALID,24.3176,VALID,124,VALID,0.229687,
2012-11-18, 03:37:04,VALID,1008.4,VALID,0,VALID,104,VALID,0,VALID,24.2981,VALID,124,VALID,0.277734,
2012-11-18, 03:38:04,VALID,1008.41,VALID,0,VALID,104,VALID,0,VALID,24.3176,VALID,124,VALID,0.206641,
2012-11-18, 03:39:04,VALID,1008.42,VALID,0,VALID,104,VALID,0,VALID,24.2768,VALID,124,VALID,0.251563,
2012-11-18, 03:40:04,VALID,1008.42,VALID,0,VALID,104,VALID,0,VALID,24.3176,VALID,124,VALID,0.317578,
2012-11-18, 03:41:04,VALID,1008.44,VALID,0,VALID,104,VALID,0,VALID,24.3176,VALID,124,VALID,0.269141,
2012-11-18, 03:42:04,VALID,1008.44,VALID,0,VALID,104,VALID,0,VALID,24.2981,VALID,124,VALID,0.191406,
2012-11-18, 03:43:04,VALID,1008.44,VALID,0,VALID,104,VALID,0,VALID,24.3176,VALID,124,VALID,0.310937,
2012-11-18, 03:44:04,VALID,1008.41,VALID,0,VALID,104,VALID,0,VALID,24.3176,VALID,124,VALID,0.249609,
2012-11-18, 03:45:04,VALID,1008.4,VALID,0,VALID,104,VALID,0,VALID,24.3176,VALID,124,VALID,0.375,
2012-11-18, 03:46:04,VALID,1008.41,VALID,0,VALID,104,VALID,0.112112,VALID,24.3176,VALID,124,VALID,0.270703,
2012-11-18, 03:47:04,VALID,1008.41,VALID,0,VALID,104,VALID,0,VALID,24.2768,VALID,124,VALID,0.096875,
2012-11-18, 03:48:04,VALID,1008.39,VALID,0,VALID,104,VALID,0,VALID,24.2768,VALID,124,VALID,0.223047,
2012-11-18, 03:49:04,VALID,1008.43,VALID,0,VALID,104,VALID,0.112112,VALID,24.2749,VALID,124,VALID,0.142188,
2012-11-18, 03:50:04,VALID,1008.44,VALID,0,VALID,104,VALID,0.112112,VALID,24.2573,VALID,124,VALID,0.2,
2012-11-18, 03:51:04,VALID,1008.44,VALID,0,VALID,104,VALID,0.112112,VALID,24.2768,VALID,124,VALID,0.106641,
2012-11-18, 03:52:04,VALID,1008.48,VALID,0,VALID,104,VALID,0.112112,VALID,24.2768,VALID,124,VALID,0.0695312,
2012-11-18, 03:53:04,VALID,1008.48,VALID,0,VALID,104,VALID,0,VALID,24.2768,VALID,124,VALID,0.0730469,
2012-11-18, 03:54:04,VALID,1008.54,VALID,0,VALID,104,VALID,0,VALID,24.2768,VALID,124,VALID,0.0140625,
2012-11-18, 03:55:04,VALID,1008.59,VALID,0,VALID,104,VALID,0.112112,VALID,24.3158,VALID,124,VALID,0.208594,
2012-11-18, 03:56:04,VALID,1008.61,VALID,0,VALID,104,VALID,0.112112,VALID,24.3158,VALID,124,VALID,0.358594,
2012-11-18, 03:57:04,VALID,1008.63,VALID,0,VALID,104,VALID,0.112112,VALID,24.3158,VALID,124,VALID,0.398828,
2012-11-18, 03:58:04,VALID,1008.65,VALID,0,VALID,104,VALID,0.112112,VALID,24.3352,VALID,124,VALID,0.315625,